�������l�o���
Date,Time,MP-1(��Sv/h),MP-2(��Sv/h),MP-3(��Sv/h),MP-4(��Sv/h),MP-5(��Sv/h),MP-6(��Sv/h),MP-7(��Sv/h),MP-8(��Sv/h),����,����(m/s),���J
2020/01/29,00:00,0.681,0.949,0.639,1.189,0.831,0.395,0.686,0.653,�k��,8.2,�L
2020/01/29,00:10,0.680,0.948,0.638,1.190,0.831,0.396,0.685,0.654,���k��,8.9,�L
2020/01/29,00:20,0.677,0.947,0.638,1.186,0.831,0.396,0.684,0.654,�k��,8.3,�L
2020/01/29,00:30,0.679,0.946,0.638,1.187,0.831,0.396,0.684,0.654,�k��,8.6,�L
2020/01/29,00:40,0.679,0.945,0.638,1.186,0.827,0.395,0.684,0.654,�k��,7.4,�L
2020/01/29,00:50,0.678,0.943,0.637,1.184,0.828,0.395,0.683,0.652,�k��,9.6,�L
2020/01/29,01:00,0.678,0.943,0.636,1.184,0.824,0.396,0.681,0.653,�k��,10.4,�L
2020/01/29,01:10,0.677,0.942,0.636,1.183,0.826,0.394,0.683,0.653,�k��,9.1,�L
2020/01/29,01:20,0.678,0.942,0.637,1.184,0.821,0.395,0.681,0.651,�k��,8.6,�L
2020/01/29,01:30,0.676,0.943,0.636,1.181,0.824,0.393,0.682,0.651,�k��,8.6,�L
2020/01/29,01:40,0.677,0.943,0.637,1.178,0.824,0.394,0.682,0.651,�k��,8.2,�L
2020/01/29,01:50,0.675,0.939,0.636,1.178,0.822,0.394,0.682,0.652,�k��,8.6,�L
2020/01/29,02:00,0.675,0.936,0.634,1.175,0.820,0.394,0.681,0.651,�k�k��,8.6,�L
2020/01/29,02:10,0.669,0.931,0.631,1.171,0.815,0.394,0.680,0.650,�k��,9.1,�L
2020/01/29,02:20,0.669,0.932,0.632,1.167,0.813,0.393,0.678,0.647,�k��,7.8,�L
2020/01/29,02:30,0.670,0.927,0.631,1.165,0.811,0.391,0.676,0.647,�k��,9.7,�L
2020/01/29,02:40,0.669,0.924,0.627,1.162,0.809,0.391,0.676,0.647,�k�k��,6.9,�L
2020/01/29,02:50,0.671,0.926,0.627,1.163,0.808,0.392,0.677,0.649,���k��,8.2,�L
2020/01/29,03:00,0.673,0.927,0.629,1.162,0.808,0.394,0.677,0.649,�k��,7.4,�L
2020/01/29,03:10,0.673,0.928,0.628,1.162,0.807,0.393,0.677,0.648,-,CALM,�L
2020/01/29,03:20,0.671,0.928,0.631,1.161,0.805,0.393,0.676,0.648,�k��,8.5,�L
2020/01/29,03:30,0.671,0.928,0.629,1.161,0.805,0.393,0.678,0.649,-,CALM,�L
2020/01/29,03:40,0.672,0.928,0.631,1.162,0.802,0.393,0.678,0.649,�k�k��,9.4,�L
2020/01/29,03:50,0.671,0.930,0.629,1.161,0.804,0.395,0.678,0.647,-,CALM,�L
2020/01/29,04:00,0.671,0.930,0.630,1.158,0.803,0.393,0.678,0.649,�k��,8.3,�L
2020/01/29,04:10,0.671,0.930,0.630,1.157,0.803,0.395,0.677,0.649,�k��,7.2,�L
2020/01/29,04:20,0.670,0.929,0.630,1.158,0.803,0.392,0.677,0.651,-,CALM,�L
2020/01/29,04:30,0.671,0.930,0.629,1.159,0.801,0.394,0.677,0.647,-,CALM,�L
2020/01/29,04:40,0.670,0.927,0.628,1.153,0.797,0.392,0.676,0.649,-,CALM,�L
2020/01/29,04:50,0.672,0.924,0.626,1.155,0.798,0.393,0.676,0.647,-,CALM,�L
2020/01/29,05:00,0.671,0.926,0.630,1.154,0.794,0.395,0.676,0.648,�k��,10.2,�L
2020/01/29,05:10,0.671,0.926,0.626,1.155,0.794,0.395,0.676,0.648,-,CALM,�L
2020/01/29,05:20,0.672,0.925,0.625,1.158,0.794,0.394,0.676,0.648,���k��,13.0,�L
2020/01/29,05:30,0.669,0.921,0.623,1.154,0.789,0.393,0.673,0.646,-,CALM,�L
2020/01/29,05:40,0.668,0.920,0.621,1.151,0.789,0.393,0.675,0.648,-,CALM,�L
2020/01/29,05:50,0.669,0.920,0.619,1.153,0.785,0.394,0.675,0.646,-,CALM,�L
2020/01/29,06:00,0.668,0.922,0.617,1.155,0.785,0.392,0.674,0.649,-,CALM,�L
2020/01/29,06:10,0.666,0.922,0.614,1.155,0.785,0.392,0.676,0.648,-,CALM,�L
2020/01/29,06:20,0.668,0.922,0.614,1.155,0.786,0.392,0.675,0.648,-,CALM,�L
2020/01/29,06:30,0.668,0.922,0.612,1.153,0.784,0.394,0.674,0.645,-,CALM,�L
2020/01/29,06:40,0.666,0.915,0.611,1.152,0.782,0.390,0.674,0.647,-,CALM,�L
2020/01/29,06:50,0.666,0.917,0.609,1.151,0.781,0.393,0.673,0.646,���k��,11.5,�L
2020/01/29,07:00,0.667,0.916,0.609,1.153,0.777,0.393,0.676,0.647,-,CALM,�L
2020/01/29,07:10,0.667,0.916,0.605,1.153,0.777,0.392,0.674,0.648,�k��,11.6,�L
2020/01/29,07:20,0.671,0.920,0.608,1.157,0.779,0.392,0.677,0.648,���k��,11.5,�L
2020/01/29,07:30,0.671,0.922,0.611,1.163,0.781,0.394,0.677,0.648,�k��,10.7,�L
2020/01/29,07:40,0.669,0.919,0.610,1.158,0.779,0.393,0.674,0.648,���k��,12.3,�L
2020/01/29,07:50,0.670,0.918,0.612,1.157,0.780,0.393,0.675,0.647,�k��,13.2,�L
2020/01/29,08:00,0.673,0.920,0.612,1.161,0.781,0.393,0.676,0.647,�k��,13.7,�L
2020/01/29,08:10,0.673,0.920,0.613,1.162,0.781,0.394,0.675,0.648,�k��,12.4,�L
2020/01/29,08:20,0.672,0.920,0.614,1.161,0.778,0.393,0.674,0.648,�k��,13.0,�L
2020/01/29,08:30,0.673,0.920,0.613,1.161,0.778,0.393,0.676,0.648,�k��,13.3,�L
2020/01/29,08:40,0.671,0.916,0.612,1.159,0.776,0.392,0.676,0.647,�k��,12.7,�L
2020/01/29,08:50,0.670,0.915,0.610,1.158,0.777,0.392,0.676,0.648,�k��,12.3,�L
2020/01/29,09:00,0.670,0.915,0.612,1.157,0.777,0.393,0.675,0.647,�k��,10.8,�L
2020/01/29,09:10,0.669,0.914,0.609,1.157,0.777,0.392,0.674,0.647,�k��,11.9,�L
2020/01/29,09:20,0.666,0.907,0.605,1.149,0.773,0.392,0.672,0.648,�k��,9.6,�L
2020/01/29,09:30,0.669,0.911,0.606,1.153,0.772,0.393,0.675,0.649,�k��,8.0,�L
2020/01/29,09:40,0.675,0.915,0.607,1.161,0.778,0.395,0.675,0.648,�k��,9.4,�L
2020/01/29,09:50,0.671,0.914,0.608,1.156,0.774,0.395,0.674,0.648,���k��,9.9,�L
2020/01/29,10:00,0.671,0.914,0.606,1.152,0.774,0.394,0.674,0.649,���k��,11.1,�L
2020/01/29,10:10,0.674,0.918,0.610,1.152,0.776,0.395,0.675,0.650,���k��,13.2,�L
2020/01/29,10:20,0.676,0.915,0.608,1.153,0.775,0.395,0.676,0.650,���k��,11.0,�L
2020/01/29,10:30,0.677,0.918,0.610,1.153,0.777,0.396,0.678,0.648,��,11.2,�L
2020/01/29,10:40,0.676,0.920,0.611,1.158,0.779,0.396,0.677,0.650,��,12.3,�L
2020/01/29,10:50,0.678,0.925,0.613,1.159,0.781,0.395,0.678,0.651,���k��,11.3,�L
2020/01/29,11:00,0.679,0.923,0.613,1.163,0.783,0.396,0.679,0.652,���k��,10.4,�L
2020/01/29,11:10,0.680,0.923,0.616,1.168,0.784,0.395,0.678,0.652,���k��,12.2,�L
2020/01/29,11:20,0.679,0.926,0.616,1.170,0.782,0.395,0.680,0.651,���k��,13.8,�L
2020/01/29,11:30,0.679,0.922,0.616,1.170,0.782,0.393,0.680,0.650,���k��,15.5,�L
2020/01/29,11:40,0.677,0.925,0.616,1.167,0.784,0.394,0.679,0.653,���k��,11.2,�L
2020/01/29,11:50,0.677,0.925,0.620,1.169,0.785,0.394,0.680,0.652,���k��,11.8,�L
2020/01/29,12:00,0.678,0.926,0.620,1.171,0.787,0.393,0.683,0.652,���k��,10.1,�L
2020/01/29,12:10,0.680,0.927,0.619,1.174,0.787,0.393,0.680,0.652,���k��,11.3,�L
2020/01/29,12:20,0.679,0.925,0.619,1.175,0.789,0.393,0.680,0.653,���k��,14.3,�L
2020/01/29,12:30,0.678,0.927,0.619,1.173,0.789,0.394,0.680,0.651,���k��,15.2,�L
2020/01/29,12:40,0.677,0.926,0.619,1.174,0.790,0.392,0.678,0.651,���k��,17.8,�L
2020/01/29,12:50,0.676,0.922,0.621,1.171,0.786,0.393,0.681,0.650,�k��,14.3,�L
2020/01/29,13:00,0.668,0.915,0.617,1.164,0.784,0.392,0.679,0.649,�k��,12.1,�L
2020/01/29,13:10,0.672,0.915,0.617,1.163,0.784,0.392,0.680,0.649,���k��,10.5,�L
2020/01/29,13:20,0.662,0.900,0.608,1.147,0.771,0.390,0.674,0.645,-,CALM,�L
2020/01/29,13:30,0.649,0.888,0.601,1.146,0.776,0.392,0.677,0.645,���k��,8.5,�L
2020/01/29,13:40,0.661,0.901,0.604,1.155,0.781,0.394,0.677,0.647,��쐼,9.1,�L
2020/01/29,13:50,0.668,0.914,0.608,1.160,0.783,0.394,0.678,0.651,���쐼,9.3,�L
2020/01/29,14:00,0.674,0.918,0.609,1.167,0.784,0.395,0.679,0.651,��,8.0,�L
2020/01/29,14:10,0.675,0.922,0.612,1.170,0.786,0.396,0.679,0.654,���k��,12.1,�L
2020/01/29,14:20,0.677,0.926,0.614,1.171,0.786,0.396,0.680,0.652,�k��,9.4,�L
2020/01/29,14:30,0.678,0.929,0.615,1.173,0.790,0.396,0.682,0.653,���k��,10.5,�L
2020/01/29,14:40,0.678,0.929,0.617,1.174,0.791,0.397,0.682,0.653,�k��,13.0,�L
2020/01/29,14:50,0.679,0.931,0.619,1.176,0.791,0.396,0.682,0.653,�k��,13.0,�L
2020/01/29,15:00,0.677,0.932,0.619,1.180,0.794,0.396,0.681,0.653,�k��,11.3,�L
2020/01/29,15:10,0.679,0.932,0.620,1.182,0.793,0.395,0.681,0.651,�k��,12.3,�L
2020/01/29,15:20,0.678,0.932,0.622,1.183,0.795,0.394,0.682,0.652,�k��,11.3,�L
2020/01/29,15:30,0.678,0.933,0.620,1.182,0.794,0.391,0.682,0.651,�k��,11.3,�L
2020/01/29,15:40,0.677,0.933,0.621,1.181,0.795,0.388,0.681,0.652,�k��,11.9,�L
2020/01/29,15:50,0.677,0.932,0.622,1.180,0.795,0.391,0.684,0.651,�k��,13.8,�L
2020/01/29,16:00,0.678,0.936,0.621,1.182,0.798,0.394,0.684,0.652,�k��,13.6,�L
2020/01/29,16:10,0.678,0.935,0.623,1.184,0.798,0.395,0.684,0.653,�k��,12.5,�L
2020/01/29,16:20,0.677,0.936,0.623,1.193,0.800,0.393,0.685,0.652,�k��,13.4,�L
2020/01/29,16:30,0.677,0.935,0.624,1.189,0.801,0.393,0.685,0.653,�k��,13.5,�L
2020/01/29,16:40,0.680,0.939,0.624,1.195,0.801,0.394,0.685,0.654,�k��,8.9,��
2020/01/29,16:50,0.679,0.937,0.624,1.195,0.803,0.393,0.687,0.654,�k��,10.8,��
2020/01/29,17:00,0.678,0.941,0.625,1.194,0.801,0.393,0.686,0.653,�k��,11.5,��
2020/01/29,17:10,0.678,0.941,0.625,1.195,0.805,0.393,0.685,0.654,�k��,6.9,��
2020/01/29,17:20,0.679,0.940,0.626,1.196,0.804,0.394,0.685,0.654,���k��,7.4,��
2020/01/29,17:30,0.679,0.940,0.626,1.197,0.805,0.394,0.683,0.655,���k��,8.8,��
2020/01/29,17:40,0.679,0.940,0.626,1.197,0.805,0.394,0.686,0.655,���k��,6.4,��
2020/01/29,17:50,0.681,0.943,0.628,1.196,0.805,0.393,0.686,0.656,���k��,8.2,��
2020/01/29,18:00,0.680,0.942,0.628,1.199,0.806,0.393,0.686,0.654,���k��,8.6,��
2020/01/29,18:10,0.680,0.945,0.626,1.198,0.805,0.394,0.686,0.655,���k��,6.6,��
2020/01/29,18:20,0.679,0.942,0.627,1.199,0.809,0.394,0.686,0.654,���k��,6.0,��
2020/01/29,18:30,0.681,0.943,0.628,1.201,0.808,0.395,0.687,0.655,�k��,6.3,��
2020/01/29,18:40,0.681,0.943,0.628,1.199,0.811,0.393,0.686,0.654,�k��,5.2,��
2020/01/29,18:50,0.680,0.944,0.631,1.201,0.808,0.393,0.687,0.655,���k��,7.7,��
2020/01/29,19:00,0.681,0.945,0.628,1.201,0.810,0.393,0.689,0.655,���k��,8.6,��
2020/01/29,19:10,0.683,0.944,0.629,1.200,0.813,0.395,0.688,0.656,�k��,7.1,��
2020/01/29,19:20,0.682,0.944,0.630,1.203,0.810,0.396,0.688,0.656,���k��,7.1,��
2020/01/29,19:30,0.681,0.947,0.629,1.199,0.811,0.393,0.688,0.655,���k��,6.6,��
2020/01/29,19:40,0.682,0.944,0.628,1.199,0.811,0.394,0.688,0.656,�k��,4.7,��
2020/01/29,19:50,0.681,0.944,0.629,1.201,0.813,0.395,0.691,0.656,���k��,6.6,��
2020/01/29,20:00,0.681,0.947,0.631,1.202,0.811,0.394,0.691,0.657,���k��,6.9,��
2020/01/29,20:10,0.682,0.948,0.630,1.201,0.813,0.396,0.691,0.656,��,5.8,��
2020/01/29,20:20,0.681,0.947,0.632,1.205,0.814,0.394,0.691,0.656,��,4.9,��
2020/01/29,20:30,0.682,0.946,0.631,1.204,0.816,0.395,0.689,0.656,��,6.4,��
2020/01/29,20:40,0.683,0.945,0.630,1.202,0.814,0.394,0.691,0.657,��,7.4,��
2020/01/29,20:50,0.683,0.944,0.631,1.204,0.814,0.395,0.692,0.657,��,8.0,��
2020/01/29,21:00,0.683,0.946,0.631,1.203,0.815,0.395,0.691,0.657,��,8.5,��
2020/01/29,21:10,0.683,0.948,0.631,1.204,0.815,0.395,0.691,0.658,��,7.4,��
2020/01/29,21:20,0.682,0.949,0.630,1.204,0.815,0.396,0.690,0.657,��,6.4,��
2020/01/29,21:30,0.683,0.949,0.632,1.206,0.815,0.395,0.691,0.655,��,6.6,��
2020/01/29,21:40,0.684,0.948,0.633,1.201,0.816,0.395,0.691,0.658,��,7.8,��
2020/01/29,21:50,0.683,0.948,0.633,1.202,0.818,0.396,0.691,0.657,��,9.1,��
2020/01/29,22:00,0.682,0.950,0.632,1.205,0.817,0.395,0.691,0.657,��,9.6,��
2020/01/29,22:10,0.686,0.950,0.633,1.205,0.816,0.397,0.693,0.658,���k��,10.4,��
2020/01/29,22:20,0.684,0.947,0.631,1.207,0.817,0.394,0.692,0.658,���k��,9.3,��
2020/01/29,22:30,0.684,0.950,0.634,1.204,0.817,0.396,0.691,0.656,���k��,8.6,��
2020/01/29,22:40,0.683,0.948,0.632,1.206,0.818,0.397,0.692,0.658,���k��,10.4,��
2020/01/29,22:50,0.683,0.950,0.632,1.207,0.818,0.396,0.693,0.658,���k��,10.1,��
2020/01/29,23:00,0.683,0.951,0.633,1.208,0.818,0.397,0.692,0.657,���k��,8.6,��
2020/01/29,23:10,0.683,0.950,0.634,1.207,0.818,0.396,0.692,0.658,���k��,8.5,��
2020/01/29,23:20,0.683,0.951,0.633,1.207,0.819,0.396,0.692,0.659,���k��,9.9,��
2020/01/29,23:30,0.684,0.953,0.635,1.210,0.819,0.396,0.692,0.658,���k��,8.0,��
2020/01/29,23:40,0.685,0.950,0.634,1.204,0.821,0.397,0.692,0.657,�k��,7.2,��
2020/01/29,23:50,0.685,0.953,0.636,1.209,0.818,0.396,0.693,0.660,�k��,4.2,��
